Change the Weather History Date:

Tuesday, April 16, 2013

  Actual Average Record
Temperature  
Mean Temperature 70 °F 63 °F  
Max Temperature 80 °F 76 °F 90 °F (1967)
Min Temperature 59 °F 51 °F 32 °F (1950)
Degree Days  
Heating Degree Days 0 4  
Month to date heating degree days 65 84  
Since 1 July heating degree days 2276 2460  
Cooling Degree Days 5 2  
Month to date cooling degree days 39 29  
Year to date cooling degree days 68 53  
Growing Degree Days 20 (Base 50)    
Moisture  
Dew Point 59 °F    
Average Humidity 71    
Maximum Humidity 97    
Minimum Humidity 45    
Precipitation  
Precipitation 0.00 in 0.08 in 1.76 in (1958)
Month to date precipitation 1.48 1.38  
Year to date precipitation 10.49 10.86  
Sea Level Pressure  
Sea Level Pressure 30.22 in    
Wind  
Wind Speed 3 mph (ESE)    
Max Wind Speed 10 mph    
Max Gust Speed 14 mph    
Visibility 8 miles    
Events Rain    
T = Trace of Precipitation, MM = Missing Value Source: NWS Daily Summary

Daily Weather History Graph

Daily Weather History Graph

Search for Another Location

Airport or City:

Trip Planner

Search our weather history database for the weather conditions in past years. The results will help you decide how hot, cold, wet, or windy it might be!

Date:

Astronomy

Apr. 16, 2013 Rise Set
Actual Time 6:46 AM EDT 7:51 PM EDT
Civil Twilight 6:20 AM EDT 8:17 PM EDT
Nautical Twilight 5:49 AM EDT 8:48 PM EDT
Astronomical Twilight 5:18 AM EDT 9:19 PM EDT
Moon 11:10 AM EDT (4/16) 12:40 AM EDT (4/16)
Length of Visible Light 13h 56m
Length of Day
13h 05m
Waxing Crescent, 33% of the Moon is Illuminated
Apr 16
Waxing Crescent
Apr 18
First Quarter
Apr 25
Full
May 2
Last Quarter
May 9
New

Hourly Weather History & Observations

Time (EDT) Temp. Dew Point Humidity Pressure Visibility Wind Dir Wind Speed Gust Speed Precip Events Conditions
12:38 AM 64.4 °F 62.6 °F 94% 30.19 in 7.0 mi East 3.5 mph - N/A   Overcast
12:49 AM 64.4 °F 62.6 °F 94% 30.19 in 6.0 mi Calm Calm - 0.00 in Rain Light Rain
12:53 AM 64.9 °F 62.1 °F 90% 30.18 in 7.0 mi Calm Calm - 0.00 in Rain Light Rain
1:53 AM 64.9 °F 62.1 °F 90% 30.19 in 10.0 mi Calm Calm - 0.00 in   Overcast
2:53 AM 64.9 °F 62.1 °F 90% 30.19 in 10.0 mi Calm Calm - N/A   Overcast
3:53 AM 64.0 °F 61.0 °F 90% 30.19 in 10.0 mi Calm Calm - N/A   Overcast
4:53 AM 63.0 °F 61.0 °F 93% 30.19 in 9.0 mi NE 4.6 mph - N/A   Overcast
5:53 AM 61.0 °F 59.0 °F 93% 30.20 in 6.0 mi Calm Calm - N/A   Clear
6:14 AM 60.8 °F 59.0 °F 94% 30.22 in 1.5 mi Calm Calm - N/A   Partly Cloudy
6:22 AM 60.8 °F 59.0 °F 94% 30.21 in 1.0 mi Calm Calm - 0.01 in   Mist
6:26 AM 60.8 °F 57.2 °F 88% 30.22 in 2.5 mi Calm Calm - 0.01 in   Partly Cloudy
6:33 AM 60.8 °F 59.0 °F 94% 30.22 in 4.0 mi Calm Calm - 0.01 in   Partly Cloudy
6:53 AM 60.1 °F 57.9 °F 93% 30.22 in 5.0 mi Calm Calm - 0.01 in   Clear
7:01 AM 60.8 °F 57.2 °F 88% 30.22 in 0.8 mi Calm Calm - N/A   Clear
7:16 AM 60.8 °F 57.2 °F 88% 30.23 in 2.0 mi Calm Calm - N/A   Clear
7:26 AM 60.8 °F 59.0 °F 94% 30.23 in 6.0 mi Calm Calm - N/A   Clear
8:53 AM 66.0 °F 61.0 °F 84% 30.25 in 10.0 mi East 4.6 mph - N/A   Clear
9:53 AM 71.1 °F 61.0 °F 70% 30.26 in 10.0 mi East 4.6 mph - N/A   Clear
10:53 AM 73.9 °F 59.0 °F 59% 30.26 in 10.0 mi ENE 8.1 mph - N/A   Partly Cloudy
11:53 AM 75.0 °F 59.0 °F 57% 30.27 in 10.0 mi Calm Calm - N/A   Partly Cloudy
12:53 PM 78.1 °F 57.9 °F 50% 30.26 in 10.0 mi ENE 3.5 mph - N/A   Scattered Clouds
1:53 PM 77.0 °F 57.0 °F 50% 30.25 in 10.0 mi East 4.6 mph - N/A   Mostly Cloudy
2:53 PM 79.0 °F 57.0 °F 47% 30.23 in 10.0 mi East 5.8 mph - N/A   Mostly Cloudy
3:53 PM 79.0 °F 55.9 °F 45% 30.20 in 10.0 mi SE 6.9 mph - N/A   Mostly Cloudy
4:53 PM 79.0 °F 57.0 °F 47% 30.19 in 10.0 mi SE 4.6 mph - N/A   Overcast
5:53 PM 79.0 °F 55.9 °F 45% 30.19 in 10.0 mi ESE 5.8 mph - N/A   Overcast
6:53 PM 78.1 °F 57.0 °F 48% 30.19 in 10.0 mi SE 3.5 mph - N/A   Mostly Cloudy
7:53 PM 73.0 °F 57.9 °F 59% 30.19 in 10.0 mi SE 5.8 mph - N/A   Partly Cloudy
8:53 PM 68.0 °F 59.0 °F 73% 30.21 in 9.0 mi ESE 4.6 mph - N/A   Clear
9:53 PM 68.0 °F 61.0 °F 78% 30.22 in 10.0 mi SE 5.8 mph - N/A   Clear
10:53 PM 66.9 °F 60.1 °F 79% 30.22 in 10.0 mi SSE 4.6 mph - N/A   Clear
11:53 PM 63.0 °F 60.1 °F 90% 30.23 in 10.0 mi Calm Calm - N/A   Clear